,,Stat5,,Stat1,,Stat2,,Stat3,,Stat4,,Wind1,,Wind1,
time,status,PA1M_AVG,status,PR1M_SUM,status,RH1M_AVG,status,SR1M_AVG,status,TA1M_AVG,status,W1dAve1m,status,W1sAve1m,
2000-09-04, 00:00:00,VALID,919.377,VALID,0,VALID,99.9138,VALID,-0.0169808,VALID,19.8764,VALID,256,VALID,0,
2000-09-04, 00:01:00,VALID,919.37,VALID,0,VALID,99.9023,VALID,-0.0169808,VALID,19.8729,VALID,262,VALID,0,
2000-09-04, 00:02:00,VALID,919.346,VALID,0,VALID,99.896,VALID,-0.0679233,VALID,19.8662,VALID,270,VALID,0,
2000-09-04, 00:03:00,VALID,919.328,VALID,0,VALID,99.9214,VALID,-0.0169808,VALID,19.8829,VALID,270,VALID,0,
2000-09-04, 00:04:00,VALID,919.311,VALID,0,VALID,99.9151,VALID,-0.0339617,VALID,19.8961,VALID,270,VALID,0,
2000-09-04, 00:05:00,VALID,919.273,VALID,0,VALID,99.9303,VALID,-0.0169808,VALID,19.9028,VALID,156,VALID,0,
2000-09-04, 00:06:00,VALID,919.244,VALID,0,VALID,99.9151,VALID,-0.0679233,VALID,19.909,VALID,78,VALID,0,
2000-09-04, 00:07:00,VALID,919.181,VALID,0,VALID,99.9189,VALID,-0.0509425,VALID,19.8995,VALID,78,VALID,0,
2000-09-04, 00:08:00,VALID,919.121,VALID,0,VALID,99.9201,VALID,-0.0339617,VALID,19.9055,VALID,78,VALID,0,
2000-09-04, 00:09:00,VALID,919.065,VALID,0,VALID,99.9074,VALID,-0.0679233,VALID,19.9192,VALID,125,VALID,0,
2000-09-04, 00:10:00,VALID,919.033,VALID,0,VALID,99.9138,VALID,-0.0679233,VALID,19.9087,VALID,103,VALID,0.809095,
2000-09-04, 00:11:00,VALID,919.02,VALID,0,VALID,99.9062,VALID,-0.0509425,VALID,19.906,VALID,106,VALID,0.712993,
2000-09-04, 00:12:00,VALID,919.024,VALID,0,VALID,99.9011,VALID,-0.0679233,VALID,19.9095,VALID,112,VALID,0.426953,
2000-09-04, 00:13:00,VALID,919.034,VALID,0,VALID,99.9151,VALID,-0.0679233,VALID,19.8859,VALID,117,VALID,0.078125,
2000-09-04, 00:14:00,VALID,919.04,VALID,0,VALID,99.9138,VALID,-0.0169808,VALID,19.8913,VALID,84,VALID,0.26262,
2000-09-04, 00:15:00,VALID,919.031,VALID,0,VALID,99.91,VALID,0.0339617,VALID,19.8851,VALID,138,VALID,0.132401,
2000-09-04, 00:16:00,VALID,919.013,VALID,0,VALID,99.9074,VALID,0.0339617,VALID,19.8814,VALID,147,VALID,0,
2000-09-04, 00:17:00,VALID,918.99,VALID,0,VALID,99.9151,VALID,0.0169808,VALID,19.8781,VALID,150,VALID,0,
2000-09-04, 00:18:00,VALID,918.959,VALID,0,VALID,99.9112,VALID,0.0169808,VALID,19.8727,VALID,133,VALID,0.0709293,
2000-09-04, 00:19:00,VALID,918.931,VALID,0,VALID,99.91,VALID,0.0169808,VALID,19.8565,VALID,90,VALID,0.927015,
2000-09-04, 00:20:00,VALID,918.922,VALID,0,VALID,99.9125,VALID,0.0169808,VALID,19.8595,VALID,98,VALID,0.660156,
2000-09-04, 00:21:00,VALID,918.922,VALID,0,VALID,99.9125,VALID,0.0169808,VALID,19.8558,VALID,96,VALID,0.42722,
2000-09-04, 00:22:00,VALID,918.906,VALID,0,VALID,99.9062,VALID,0.0339617,VALID,19.8429,VALID,98,VALID,0.206931,
2000-09-04, 00:23:00,VALID,918.904,VALID,0,VALID,99.9227,VALID,0.0679233,VALID,19.8622,VALID,110,VALID,0.599712,
2000-09-04, 00:24:00,VALID,918.92,VALID,0,VALID,99.9303,VALID,0.0339617,VALID,19.8717,VALID,108,VALID,0.369336,
2000-09-04, 00:25:00,VALID,918.926,VALID,0,VALID,99.9278,VALID,0.0509425,VALID,19.9015,VALID,110,VALID,0,
2000-09-04, 00:26:00,VALID,918.975,VALID,0,VALID,99.9023,VALID,0.0339617,VALID,19.869,VALID,111,VALID,0,
2000-09-04, 00:27:00,VALID,919.008,VALID,0,VALID,99.9062,VALID,0.0339617,VALID,19.8555,VALID,101,VALID,0.548931,
2000-09-04, 00:28:00,VALID,919.066,VALID,0,VALID,99.9151,VALID,0.0509425,VALID,19.8399,VALID,105,VALID,0.132813,
2000-09-04, 00:29:00,VALID,919.094,VALID,0,VALID,99.9125,VALID,0.0169808,VALID,19.8722,VALID,103,VALID,0.472862,
2000-09-04, 00:30:00,VALID,919.113,VALID,0,VALID,99.9252,VALID,0.0339617,VALID,19.8784,VALID,104,VALID,0.814904,
2000-09-04, 00:31:00,VALID,919.1,VALID,0,VALID,99.924,VALID,0.0509425,VALID,19.9042,VALID,91,VALID,0.918174,
2000-09-04, 00:32:00,VALID,919.078,VALID,0,VALID,99.9201,VALID,0.0339617,VALID,19.8951,VALID,95,VALID,1.23984,
2000-09-04, 00:33:00,VALID,919.061,VALID,0,VALID,99.9176,VALID,0.0509425,VALID,19.8881,VALID,102,VALID,1.05304,
2000-09-04, 00:34:00,VALID,919.046,VALID,0,VALID,99.9278,VALID,0.0509425,VALID,19.8951,VALID,100,VALID,1.14967,
2000-09-04, 00:35:00,VALID,919.019,VALID,0,VALID,99.929,VALID,0.0339617,VALID,19.8948,VALID,100,VALID,1.23766,
2000-09-04, 00:36:00,VALID,918.999,VALID,0,VALID,99.9354,VALID,0.0169808,VALID,19.9147,VALID,101,VALID,0.758008,
2000-09-04, 00:37:00,VALID,918.996,VALID,0,VALID,99.924,VALID,0.0169808,VALID,19.9179,VALID,99,VALID,0.579359,
2000-09-04, 00:38:00,VALID,918.985,VALID,0,VALID,99.9214,VALID,0.0339617,VALID,19.8814,VALID,69,VALID,0.455529,
2000-09-04, 00:39:00,VALID,918.971,VALID,0,VALID,99.9189,VALID,0.0169808,VALID,19.8749,VALID,93,VALID,0.817023,
2000-09-04, 00:40:00,VALID,918.967,VALID,0,VALID,99.9214,VALID,0.0679233,VALID,19.8844,VALID,105,VALID,0.605859,
2000-09-04, 00:41:00,VALID,918.962,VALID,0,VALID,99.9392,VALID,0.0679233,VALID,19.9008,VALID,90,VALID,0.205181,
2000-09-04, 00:42:00,VALID,918.949,VALID,0,VALID,99.9087,VALID,0.0169808,VALID,19.911,VALID,104,VALID,0.0051398,
2000-09-04, 00:43:00,VALID,918.956,VALID,0,VALID,99.91,VALID,0.0679233,VALID,19.8881,VALID,107,VALID,0.26028,
2000-09-04, 00:44:00,VALID,918.978,VALID,0,VALID,99.9138,VALID,0.0169808,VALID,19.8622,VALID,62,VALID,0.779811,
2000-09-04, 00:45:00,VALID,919.022,VALID,0,VALID,99.9112,VALID,0.0339617,VALID,19.8327,VALID,55,VALID,0.996711,
2000-09-04, 00:46:00,VALID,919.038,VALID,0,VALID,99.9189,VALID,0.0339617,VALID,19.8165,VALID,104,VALID,0.548077,
2000-09-04, 00:47:00,VALID,919.066,VALID,0,VALID,99.9176,VALID,0,VALID,19.8173,VALID,19,VALID,0.138775,
2000-09-04, 00:48:00,VALID,919.092,VALID,0,VALID,99.9176,VALID,-0.0169808,VALID,19.8168,VALID,307,VALID,0.0900391,
2000-09-04, 00:49:00,VALID,919.095,VALID,0,VALID,99.9176,VALID,0.0339617,VALID,19.8135,VALID,291,VALID,0,
2000-09-04, 00:50:00,VALID,919.089,VALID,0,VALID,99.9252,VALID,-0.0169808,VALID,19.8267,VALID,291,VALID,0.0705181,
2000-09-04, 00:51:00,VALID,919.092,VALID,0,VALID,99.9303,VALID,0,VALID,19.8359,VALID,312,VALID,0,
2000-09-04, 00:52:00,VALID,919.07,VALID,0,VALID,99.9405,VALID,0,VALID,19.8652,VALID,64,VALID,0.441211,
2000-09-04, 00:53:00,VALID,919.052,VALID,0,VALID,99.9252,VALID,0.0169808,VALID,19.8652,VALID,104,VALID,0.566201,
2000-09-04, 00:54:00,VALID,919.025,VALID,0,VALID,99.929,VALID,0,VALID,19.8814,VALID,67,VALID,0.343149,
2000-09-04, 00:55:00,VALID,919.006,VALID,0,VALID,99.9176,VALID,0,VALID,19.8396,VALID,357,VALID,0.0916941,
2000-09-04, 00:56:00,VALID,918.98,VALID,0,VALID,99.9252,VALID,0,VALID,19.8558,VALID,96,VALID,0.0908203,
2000-09-04, 00:57:00,VALID,918.983,VALID,0,VALID,99.9214,VALID,0,VALID,19.8558,VALID,95,VALID,0.393298,
2000-09-04, 00:58:00,VALID,918.989,VALID,0,VALID,99.924,VALID,0.0169808,VALID,19.8523,VALID,92,VALID,0,
2000-09-04, 00:59:00,VALID,919.012,VALID,0,VALID,99.9151,VALID,0.0169808,VALID,19.8359,VALID,206,VALID,0,
2000-09-04, 01:00:00,VALID,919.019,VALID,0,VALID,99.9138,VALID,0,VALID,19.8396,VALID,258,VALID,0,
2000-09-04, 01:01:00,VALID,919.022,VALID,0,VALID,99.91,VALID,0,VALID,19.8389,VALID,286,VALID,0,
2000-09-04, 01:02:00,VALID,919.031,VALID,0,VALID,99.9112,VALID,0,VALID,19.8359,VALID,299,VALID,0,
2000-09-04, 01:03:00,VALID,919.021,VALID,0,VALID,99.9176,VALID,0.0339617,VALID,19.8622,VALID,299,VALID,0,
2000-09-04, 01:04:00,VALID,919.009,VALID,0,VALID,99.9125,VALID,0,VALID,19.8558,VALID,303,VALID,0,
2000-09-04, 01:05:00,VALID,919,VALID,0,VALID,99.9189,VALID,0,VALID,19.8655,VALID,308,VALID,0,
2000-09-04, 01:06:00,VALID,918.999,VALID,0,VALID,99.9138,VALID,0.0169808,VALID,19.8523,VALID,308,VALID,0,
2000-09-04, 01:07:00,VALID,919.004,VALID,0,VALID,99.9151,VALID,0.0169808,VALID,19.8523,VALID,308,VALID,0,
2000-09-04, 01:08:00,VALID,919.021,VALID,0,VALID,99.9036,VALID,0.0339617,VALID,19.8394,VALID,308,VALID,0,
2000-09-04, 01:09:00,VALID,919.03,VALID,0,VALID,99.9125,VALID,0.0169808,VALID,19.8327,VALID,308,VALID,0,
2000-09-04, 01:10:00,VALID,919.045,VALID,0,VALID,99.9049,VALID,0,VALID,19.817,VALID,309,VALID,0,
2000-09-04, 01:11:00,VALID,919.034,VALID,0,VALID,99.9087,VALID,0.0169808,VALID,19.8143,VALID,309,VALID,0,
2000-09-04, 01:12:00,VALID,919.042,VALID,0,VALID,99.9023,VALID,0,VALID,19.8076,VALID,262,VALID,0,
2000-09-04, 01:13:00,VALID,919.025,VALID,0,VALID,99.8985,VALID,0,VALID,19.814,VALID,146,VALID,0,
2000-09-04, 01:14:00,VALID,919.021,VALID,0,VALID,99.9201,VALID,-0.0849042,VALID,19.8245,VALID,147,VALID,0,
2000-09-04, 01:15:00,VALID,919.012,VALID,0,VALID,99.9278,VALID,-0.101885,VALID,19.8478,VALID,147,VALID,0,
2000-09-04, 01:16:00,VALID,918.994,VALID,0,VALID,99.9176,VALID,-0.101885,VALID,19.8543,VALID,145,VALID,0,
2000-09-04, 01:17:00,VALID,918.966,VALID,0,VALID,99.9214,VALID,-0.0849042,VALID,19.8637,VALID,121,VALID,0,
2000-09-04, 01:18:00,VALID,918.928,VALID,0,VALID,99.9074,VALID,-0.101885,VALID,19.8374,VALID,110,VALID,0,
2000-09-04, 01:19:00,VALID,918.897,VALID,0,VALID,99.8718,VALID,-0.118866,VALID,19.7641,VALID,360,VALID,0.462993,
2000-09-04, 01:20:00,VALID,918.866,VALID,0,VALID,99.8655,VALID,-0.101885,VALID,19.7281,VALID,17,VALID,0.174609,
2000-09-04, 01:21:00,VALID,918.858,VALID,0,VALID,99.8756,VALID,-0.101885,VALID,19.7474,VALID,130,VALID,0.297286,
2000-09-04, 01:22:00,VALID,918.86,VALID,0,VALID,99.8718,VALID,-0.101885,VALID,19.7671,VALID,104,VALID,0.732319,
2000-09-04, 01:23:00,VALID,918.853,VALID,0,VALID,99.8655,VALID,-0.118866,VALID,19.7835,VALID,100,VALID,0.885074,
2000-09-04, 01:24:00,VALID,918.86,VALID,0,VALID,99.8744,VALID,-0.0679233,VALID,19.773,VALID,98,VALID,1.17246,
2000-09-04, 01:25:00,VALID,918.852,VALID,0,VALID,99.8731,VALID,-0.101885,VALID,19.7867,VALID,94,VALID,1.21875,
2000-09-04, 01:26:00,VALID,918.83,VALID,0,VALID,99.868,VALID,-0.0849042,VALID,19.7571,VALID,89,VALID,1.00321,
2000-09-04, 01:27:00,VALID,918.807,VALID,0,VALID,99.8553,VALID,-0.101885,VALID,19.7477,VALID,76,VALID,0.668791,
2000-09-04, 01:28:00,VALID,918.808,VALID,0,VALID,99.8578,VALID,-0.101885,VALID,19.7308,VALID,86,VALID,0.437695,
2000-09-04, 01:29:00,VALID,918.789,VALID,0,VALID,99.8667,VALID,-0.0169808,VALID,19.7303,VALID,93,VALID,0.252262,
2000-09-04, 01:30:00,VALID,918.771,VALID,0,VALID,99.8591,VALID,0.0169808,VALID,19.7104,VALID,88,VALID,0,
2000-09-04, 01:31:00,VALID,918.774,VALID,0,VALID,99.8477,VALID,0,VALID,19.6975,VALID,91,VALID,0,
2000-09-04, 01:32:00,VALID,918.754,VALID,0,VALID,99.8477,VALID,0.0169808,VALID,19.6851,VALID,88,VALID,0,
2000-09-04, 01:33:00,VALID,918.763,VALID,0,VALID,99.8502,VALID,-0.0169808,VALID,19.6751,VALID,97,VALID,0.79009,
2000-09-04, 01:34:00,VALID,918.74,VALID,0,VALID,99.8489,VALID,0,VALID,19.6654,VALID,85,VALID,1.75781,
2000-09-04, 01:35:00,VALID,918.735,VALID,0,VALID,99.8451,VALID,0,VALID,19.6423,VALID,88,VALID,1.41735,
2000-09-04, 01:36:00,VALID,918.719,VALID,0,VALID,99.8388,VALID,0,VALID,19.6398,VALID,82,VALID,1.09785,
2000-09-04, 01:37:00,VALID,918.71,VALID,0,VALID,99.8464,VALID,0,VALID,19.6204,VALID,99,VALID,0.990748,
2000-09-04, 01:38:00,VALID,918.689,VALID,0,VALID,99.8515,VALID,0,VALID,19.6301,VALID,92,VALID,0.882196,
2000-09-04, 01:39:00,VALID,918.675,VALID,0,VALID,99.8553,VALID,0,VALID,19.6075,VALID,88,VALID,1.23191,
2000-09-04, 01:40:00,VALID,918.66,VALID,0,VALID,99.8591,VALID,0,VALID,19.5971,VALID,92,VALID,1.59434,
2000-09-04, 01:41:00,VALID,918.648,VALID,0,VALID,99.868,VALID,0,VALID,19.6038,VALID,97,VALID,1.22738,
2000-09-04, 01:42:00,VALID,918.641,VALID,0,VALID,99.8807,VALID,0,VALID,19.6137,VALID,94,VALID,1.03185,
2000-09-04, 01:43:00,VALID,918.636,VALID,0,VALID,99.8769,VALID,0,VALID,19.6175,VALID,75,VALID,0.78639,
2000-09-04, 01:44:00,VALID,918.64,VALID,0,VALID,99.8807,VALID,-0.0169808,VALID,19.6142,VALID,97,VALID,0.785352,
2000-09-04, 01:45:00,VALID,918.621,VALID,0,VALID,99.8795,VALID,0,VALID,19.614,VALID,80,VALID,0.451275,
2000-09-04, 01:46:00,VALID,918.593,VALID,0,VALID,99.8858,VALID,0,VALID,19.6237,VALID,107,VALID,0.580798,
2000-09-04, 01:47:00,VALID,918.53,VALID,0,VALID,99.9011,VALID,0,VALID,19.6401,VALID,99,VALID,0.801604,
2000-09-04, 01:48:00,VALID,918.489,VALID,0,VALID,99.8985,VALID,0,VALID,19.646,VALID,101,VALID,0.644141,
2000-09-04, 01:49:00,VALID,918.457,VALID,0,VALID,99.9049,VALID,-0.0169808,VALID,19.6692,VALID,94,VALID,0.290296,
2000-09-04, 01:50:00,VALID,918.431,VALID,0,VALID,99.9036,VALID,0,VALID,19.6721,VALID,101,VALID,0,
2000-09-04, 01:51:00,VALID,918.436,VALID,0,VALID,99.91,VALID,0,VALID,19.6821,VALID,101,VALID,0,
2000-09-04, 01:52:00,VALID,918.428,VALID,0,VALID,99.896,VALID,0,VALID,19.6721,VALID,101,VALID,0.189453,
2000-09-04, 01:53:00,VALID,918.424,VALID,0,VALID,99.8973,VALID,0,VALID,19.6888,VALID,98,VALID,0.202508,
2000-09-04, 01:54:00,VALID,918.394,VALID,0,VALID,99.9049,VALID,0,VALID,19.7012,VALID,98,VALID,0.00164474,
2000-09-04, 01:55:00,VALID,918.363,VALID,0,VALID,99.9062,VALID,0,VALID,19.7017,VALID,98,VALID,0.00102796,
2000-09-04, 01:56:00,VALID,918.324,VALID,0,VALID,99.9023,VALID,0.0169808,VALID,19.6883,VALID,98,VALID,0.135937,
2000-09-04, 01:57:00,VALID,918.307,VALID,0,VALID,99.9087,VALID,0,VALID,19.7144,VALID,98,VALID,0,
2000-09-04, 01:58:00,VALID,918.301,VALID,0,VALID,99.9087,VALID,0,VALID,19.7104,VALID,98,VALID,0,
2000-09-04, 01:59:00,VALID,918.302,VALID,0,VALID,99.9087,VALID,0,VALID,19.7039,VALID,99,VALID,0,
2000-09-04, 02:00:00,VALID,918.313,VALID,0,VALID,99.9049,VALID,-0.0169808,VALID,19.7109,VALID,135,VALID,0,
2000-09-04, 02:01:00,VALID,918.302,VALID,0,VALID,99.9163,VALID,0,VALID,19.7208,VALID,101,VALID,0.131168,
2000-09-04, 02:02:00,VALID,918.281,VALID,0,VALID,99.8998,VALID,0,VALID,19.6851,VALID,101,VALID,0,
2000-09-04, 02:03:00,VALID,918.268,VALID,0,VALID,99.896,VALID,0,VALID,19.6692,VALID,113,VALID,0,
2000-09-04, 02:04:00,VALID,918.236,VALID,0,VALID,99.8922,VALID,0,VALID,19.6659,VALID,142,VALID,0,
2000-09-04, 02:05:00,VALID,918.236,VALID,0,VALID,99.9011,VALID,0,VALID,19.6657,VALID,126,VALID,0,
2000-09-04, 02:06:00,VALID,918.24,VALID,0,VALID,99.9087,VALID,-0.0169808,VALID,19.6818,VALID,97,VALID,0.516226,
2000-09-04, 02:07:00,VALID,918.227,VALID,0,VALID,99.896,VALID,0,VALID,19.6885,VALID,99,VALID,1.14535,
2000-09-04, 02:08:00,VALID,918.222,VALID,0,VALID,99.9163,VALID,0,VALID,19.688,VALID,100,VALID,0.804297,
2000-09-04, 02:09:00,VALID,918.212,VALID,0,VALID,99.8998,VALID,0.0169808,VALID,19.698,VALID,101,VALID,1.31106,
2000-09-04, 02:10:00,VALID,918.197,VALID,0,VALID,99.9138,VALID,0,VALID,19.6813,VALID,98,VALID,1.23664,
2000-09-04, 02:11:00,VALID,918.192,VALID,0,VALID,99.9011,VALID,0.0169808,VALID,19.6781,VALID,96,VALID,1.54831,
2000-09-04, 02:12:00,VALID,918.199,VALID,0,VALID,99.8858,VALID,0,VALID,19.6654,VALID,95,VALID,1.39883,
2000-09-04, 02:13:00,VALID,918.203,VALID,0,VALID,99.896,VALID,0,VALID,19.656,VALID,97,VALID,1.22944,
2000-09-04, 02:14:00,VALID,918.217,VALID,0,VALID,99.8845,VALID,0,VALID,19.6364,VALID,96,VALID,1.25962,
2000-09-04, 02:15:00,VALID,918.245,VALID,0,VALID,99.8858,VALID,0,VALID,19.6463,VALID,91,VALID,0.908717,
2000-09-04, 02:16:00,VALID,918.277,VALID,0,VALID,99.8998,VALID,-0.0339617,VALID,19.6565,VALID,119,VALID,0.564648,
2000-09-04, 02:17:00,VALID,918.309,VALID,0,VALID,99.8858,VALID,-0.0339617,VALID,19.6433,VALID,100,VALID,0.768503,
2000-09-04, 02:18:00,VALID,918.344,VALID,0,VALID,99.8947,VALID,0,VALID,19.6428,VALID,97,VALID,1.12767,
2000-09-04, 02:19:00,VALID,918.365,VALID,0,VALID,99.8998,VALID,-0.0169808,VALID,19.6433,VALID,87,VALID,1.00802,
2000-09-04, 02:20:00,VALID,918.386,VALID,0,VALID,99.8884,VALID,0,VALID,19.6468,VALID,96,VALID,1.36895,
2000-09-04, 02:21:00,VALID,918.396,VALID,0,VALID,99.8973,VALID,0,VALID,19.6371,VALID,95,VALID,1.23869,
2000-09-04, 02:22:00,VALID,918.382,VALID,0,VALID,99.8782,VALID,0,VALID,19.6209,VALID,97,VALID,1.249,
2000-09-04, 02:23:00,VALID,918.378,VALID,0,VALID,99.8845,VALID,0,VALID,19.6108,VALID,99,VALID,1.28783,
2000-09-04, 02:24:00,VALID,918.381,VALID,0,VALID,99.8896,VALID,0,VALID,19.6207,VALID,103,VALID,1.07207,
2000-09-04, 02:25:00,VALID,918.406,VALID,0,VALID,99.8858,VALID,0,VALID,19.6172,VALID,102,VALID,1.08799,
2000-09-04, 02:26:00,VALID,918.452,VALID,0,VALID,99.8845,VALID,0,VALID,19.607,VALID,101,VALID,1.15954,
2000-09-04, 02:27:00,VALID,918.487,VALID,0,VALID,99.8642,VALID,0,VALID,19.5822,VALID,101,VALID,0.688734,
2000-09-04, 02:28:00,VALID,918.521,VALID,0,VALID,99.8616,VALID,-0.0509425,VALID,19.5725,VALID,98,VALID,0.390039,
2000-09-04, 02:29:00,VALID,918.565,VALID,0,VALID,99.8502,VALID,-0.0169808,VALID,19.534,VALID,96,VALID,0.0452303,
2000-09-04, 02:30:00,VALID,918.588,VALID,0,VALID,99.8527,VALID,0,VALID,19.5178,VALID,103,VALID,0,
2000-09-04, 02:31:00,VALID,918.621,VALID,0,VALID,99.8502,VALID,0,VALID,19.5079,VALID,100,VALID,0.0717516,
2000-09-04, 02:32:00,VALID,918.623,VALID,0,VALID,99.8349,VALID,-0.0169808,VALID,19.4979,VALID,90,VALID,0.906445,
2000-09-04, 02:33:00,VALID,918.606,VALID,0,VALID,99.8349,VALID,0.0169808,VALID,19.4686,VALID,98,VALID,0.586965,
2000-09-04, 02:34:00,VALID,918.594,VALID,0,VALID,99.8273,VALID,0,VALID,19.4624,VALID,94,VALID,0.625411,
2000-09-04, 02:35:00,VALID,918.583,VALID,0,VALID,99.8184,VALID,0,VALID,19.4336,VALID,83,VALID,0.762336,
2000-09-04, 02:36:00,VALID,918.543,VALID,0,VALID,99.8159,VALID,0,VALID,19.4008,VALID,108,VALID,0.555273,
2000-09-04, 02:37:00,VALID,918.522,VALID,0,VALID,99.807,VALID,-0.0169808,VALID,19.401,VALID,104,VALID,0.941406,
2000-09-04, 02:38:00,VALID,918.506,VALID,0,VALID,99.8197,VALID,0,VALID,19.3943,VALID,103,VALID,1.10276,
2000-09-04, 02:39:00,VALID,918.487,VALID,0,VALID,99.8235,VALID,0,VALID,19.3916,VALID,100,VALID,1.01357,
2000-09-04, 02:40:00,VALID,918.49,VALID,0,VALID,99.8248,VALID,0,VALID,19.3819,VALID,102,VALID,1.13516,
2000-09-04, 02:41:00,VALID,918.508,VALID,0,VALID,99.8235,VALID,0,VALID,19.3652,VALID,105,VALID,0.794408,
2000-09-04, 02:42:00,VALID,918.528,VALID,0,VALID,99.8248,VALID,0.0169808,VALID,19.3558,VALID,105,VALID,0.247327,
2000-09-04, 02:43:00,VALID,918.561,VALID,0,VALID,99.8349,VALID,0,VALID,19.3628,VALID,105,VALID,0,
2000-09-04, 02:44:00,VALID,918.582,VALID,0,VALID,99.8324,VALID,-0.0849042,VALID,19.3538,VALID,105,VALID,0.0986328,
2000-09-04, 02:45:00,VALID,918.582,VALID,0,VALID,99.8362,VALID,-0.0679233,VALID,19.3605,VALID,113,VALID,0.318668,
2000-09-04, 02:46:00,VALID,918.576,VALID,0,VALID,99.8477,VALID,-0.0169808,VALID,19.3637,VALID,97,VALID,0.698317,
2000-09-04, 02:47:00,VALID,918.575,VALID,0,VALID,99.8464,VALID,-0.0849042,VALID,19.357,VALID,87,VALID,0.76213,
2000-09-04, 02:48:00,VALID,918.581,VALID,0,VALID,99.8349,VALID,-0.101885,VALID,19.3575,VALID,99,VALID,0.350586,
2000-09-04, 02:49:00,VALID,918.562,VALID,0,VALID,99.8273,VALID,-0.0849042,VALID,19.3344,VALID,113,VALID,0.0818257,
2000-09-04, 02:50:00,VALID,918.55,VALID,0,VALID,99.821,VALID,-0.101885,VALID,19.325,VALID,96,VALID,0.0555099,
2000-09-04, 02:51:00,VALID,918.535,VALID,0,VALID,99.821,VALID,-0.101885,VALID,19.3155,VALID,94,VALID,0,
2000-09-04, 02:52:00,VALID,918.521,VALID,0,VALID,99.8235,VALID,-0.0849042,VALID,19.3185,VALID,94,VALID,0,
2000-09-04, 02:53:00,VALID,918.505,VALID,0,VALID,99.8273,VALID,-0.0849042,VALID,19.3116,VALID,95,VALID,0.119922,
2000-09-04, 02:54:00,VALID,918.502,VALID,0,VALID,99.826,VALID,-0.0679233,VALID,19.3252,VALID,95,VALID,0.425681,
2000-09-04, 02:55:00,VALID,918.511,VALID,0,VALID,99.8235,VALID,-0.101885,VALID,19.3088,VALID,103,VALID,0.83861,
2000-09-04, 02:56:00,VALID,918.544,VALID,0,VALID,99.8299,VALID,-0.0679233,VALID,19.3284,VALID,103,VALID,0.935938,
2000-09-04, 02:57:00,VALID,918.59,VALID,0,VALID,99.84,VALID,-0.0849042,VALID,19.325,VALID,102,VALID,0.818257,
2000-09-04, 02:58:00,VALID,918.621,VALID,0,VALID,99.8464,VALID,-0.0849042,VALID,19.3247,VALID,100,VALID,0.925164,
2000-09-04, 02:59:00,VALID,918.638,VALID,0,VALID,99.854,VALID,-0.0169808,VALID,19.3302,VALID,102,VALID,1.06682,
2000-09-04, 03:00:00,VALID,918.634,VALID,0,VALID,99.8629,VALID,0.0339617,VALID,19.3292,VALID,95,VALID,1.1584,
2000-09-04, 03:01:00,VALID,918.621,VALID,0,VALID,99.8426,VALID,0.0169808,VALID,19.3302,VALID,95,VALID,1.42907,
2000-09-04, 03:02:00,VALID,918.583,VALID,0,VALID,99.8464,VALID,0,VALID,19.317,VALID,92,VALID,1.13321,
2000-09-04, 03:03:00,VALID,918.546,VALID,0,VALID,99.854,VALID,0.0339617,VALID,19.3101,VALID,100,VALID,0.98787,
2000-09-04, 03:04:00,VALID,918.522,VALID,0,VALID,99.8438,VALID,0.0169808,VALID,19.3011,VALID,95,VALID,1.35703,
2000-09-04, 03:05:00,VALID,918.498,VALID,0,VALID,99.826,VALID,0.0509425,VALID,19.291,VALID,92,VALID,1.2722,
2000-09-04, 03:06:00,VALID,918.491,VALID,0,VALID,99.8286,VALID,0.0339617,VALID,19.2716,VALID,92,VALID,1.25452,
2000-09-04, 03:07:00,VALID,918.502,VALID,0,VALID,99.8337,VALID,0.0169808,VALID,19.2711,VALID,93,VALID,1.40378,
2000-09-04, 03:08:00,VALID,918.507,VALID,0,VALID,99.8273,VALID,0,VALID,19.2552,VALID,97,VALID,1.59199,
2000-09-04, 03:09:00,VALID,918.511,VALID,0,VALID,99.8286,VALID,0.0169808,VALID,19.2557,VALID,95,VALID,1.91303,
2000-09-04, 03:10:00,VALID,918.525,VALID,0,VALID,99.8286,VALID,0.0169808,VALID,19.2427,VALID,91,VALID,1.3732,
2000-09-04, 03:11:00,VALID,918.537,VALID,0,VALID,99.8286,VALID,0.0339617,VALID,19.2462,VALID,91,VALID,1.23808,
2000-09-04, 03:12:00,VALID,918.559,VALID,0,VALID,99.826,VALID,0.0169808,VALID,19.2462,VALID,98,VALID,1.11367,
2000-09-04, 03:13:00,VALID,918.588,VALID,0,VALID,99.8349,VALID,0,VALID,19.2363,VALID,99,VALID,1.10074,
2000-09-04, 03:14:00,VALID,918.619,VALID,0,VALID,99.8413,VALID,0.0169808,VALID,19.2363,VALID,81,VALID,0.969984,
2000-09-04, 03:15:00,VALID,918.629,VALID,0,VALID,99.8451,VALID,0,VALID,19.24,VALID,99,VALID,0.801809,
2000-09-04, 03:16:00,VALID,918.656,VALID,0,VALID,99.8299,VALID,0,VALID,19.2368,VALID,90,VALID,0.592188,
2000-09-04, 03:17:00,VALID,918.67,VALID,0,VALID,99.8337,VALID,0,VALID,19.2435,VALID,69,VALID,0.585526,
2000-09-04, 03:18:00,VALID,918.691,VALID,0,VALID,99.8299,VALID,0,VALID,19.2432,VALID,43,VALID,0.475361,
2000-09-04, 03:19:00,VALID,918.693,VALID,0,VALID,99.8324,VALID,0,VALID,19.2432,VALID,70,VALID,0.44634,
2000-09-04, 03:20:00,VALID,918.701,VALID,0,VALID,99.821,VALID,0.0169808,VALID,19.2328,VALID,59,VALID,0.55957,
2000-09-04, 03:21:00,VALID,918.696,VALID,0,VALID,99.8311,VALID,0,VALID,19.2462,VALID,93,VALID,0.922697,
2000-09-04, 03:22:00,VALID,918.692,VALID,0,VALID,99.8108,VALID,-0.0169808,VALID,19.2529,VALID,78,VALID,0.884252,
2000-09-04, 03:23:00,VALID,918.671,VALID,0,VALID,99.8044,VALID,0.0169808,VALID,19.2395,VALID,97,VALID,0.721628,
2000-09-04, 03:24:00,VALID,918.648,VALID,0,VALID,99.793,VALID,0.0169808,VALID,19.246,VALID,71,VALID,0.733789,
2000-09-04, 03:25:00,VALID,918.637,VALID,0,VALID,99.7701,VALID,0.0169808,VALID,19.243,VALID,28,VALID,0.606086,
2000-09-04, 03:26:00,VALID,918.606,VALID,0,VALID,99.7625,VALID,0.0339617,VALID,19.2268,VALID,49,VALID,0.448518,
2000-09-04, 03:27:00,VALID,918.585,VALID,0,VALID,99.7459,VALID,0.0339617,VALID,19.2134,VALID,95,VALID,0.808183,
2000-09-04, 03:28:00,VALID,918.558,VALID,0,VALID,99.7447,VALID,0,VALID,19.2072,VALID,89,VALID,0.893945,
2000-09-04, 03:29:00,VALID,918.534,VALID,0,VALID,99.723,VALID,-0.0679233,VALID,19.2218,VALID,92,VALID,0.443668,
2000-09-04, 03:30:00,VALID,918.502,VALID,0,VALID,99.723,VALID,-0.101885,VALID,19.2156,VALID,111,VALID,0.101974,
2000-09-04, 03:31:00,VALID,918.484,VALID,0,VALID,99.6938,VALID,-0.101885,VALID,19.1995,VALID,87,VALID,0.123766,
2000-09-04, 03:32:00,VALID,918.457,VALID,0,VALID,99.6785,VALID,-0.101885,VALID,19.1865,VALID,36,VALID,0.293945,
2000-09-04, 03:33:00,VALID,918.468,VALID,0,VALID,99.6836,VALID,-0.101885,VALID,19.1863,VALID,82,VALID,0.726357,
2000-09-04, 03:34:00,VALID,918.472,VALID,0,VALID,99.6582,VALID,-0.0849042,VALID,19.1768,VALID,72,VALID,0.876402,
2000-09-04, 03:35:00,VALID,918.502,VALID,0,VALID,99.6493,VALID,-0.101885,VALID,19.1639,VALID,55,VALID,0.647615,
2000-09-04, 03:36:00,VALID,918.513,VALID,0,VALID,99.6366,VALID,-0.101885,VALID,19.1508,VALID,84,VALID,0.738477,
2000-09-04, 03:37:00,VALID,918.533,VALID,0,VALID,99.6251,VALID,-0.101885,VALID,19.1413,VALID,91,VALID,0.553865,
2000-09-04, 03:38:00,VALID,918.543,VALID,0,VALID,99.6175,VALID,-0.101885,VALID,19.1383,VALID,87,VALID,0.740748,